Location: Frankfurt+(oder)
(51.7984°N, 12.2168°E)
Time: 04:23:55
(UTC+01:00)

N. Korean satellite - Visible Passes

Search period start: 17 January 2018 00:00
Search period end: 27 January 2018 00:00
Orbit: 459 x 515 km, 97.2° (Epoch: 16 January)

Date Brightness Start Highest point End Pass type
(mag) Time Alt. Az. Time Alt. Az. Time Alt. Az.
17 Jan 9.6 06:06:59 10° NE 06:09:25 18° E 06:11:50 10° SE visible
17 Jan 7.7 18:20:58 10° S 18:24:27 45° W 18:27:55 10° NNW visible
18 Jan 10.3 05:45:18 10° E 05:45:30 10° E 05:45:41 10° E visible
18 Jan 6.4 07:16:03 10° N 07:19:31 75° WNW 07:22:57 10° SSW visible
18 Jan 6.6 17:57:08 10° SSE 18:00:45 86° WSW 18:04:20 10° NNW visible
19 Jan 7.2 06:52:25 10° NNE 06:55:50 57° E 06:59:14 10° S visible
19 Jan 6.7 17:33:37 10° SSE 17:37:07 51° ENE 17:40:35 10° N visible
19 Jan 9.8 19:08:45 10° SW 19:10:55 15° W 19:13:05 10° NW visible
20 Jan 8.6 06:28:58 10° NNE 06:32:05 30° E 06:35:10 10° SSE visible
20 Jan 8.9 18:44:01 10° SSW 18:47:04 26° W 18:50:06 10° NW visible
21 Jan 9.6 06:05:51 10° NE 06:08:14 17° E 06:10:37 10° SE visible
21 Jan 7.7 18:19:50 10° S 18:23:17 46° W 18:26:43 10° NNW visible
22 Jan 6.4 07:14:52 10° N 07:18:20 77° WNW 07:21:47 10° SSW visible
22 Jan 6.5 17:56:01 10° SSE 17:59:35 88° WSW 18:03:08 10° NNW visible
23 Jan 7.3 06:51:14 10° NNE 06:54:39 55° E 06:58:03 10° S visible
23 Jan 6.7 17:32:29 10° SSE 17:35:56 49° ENE 17:39:22 10° N visible
23 Jan 9.8 19:07:34 10° SW 19:09:44 15° W 19:11:53 10° NW visible
24 Jan 8.7 06:27:47 10° NNE 06:30:53 30° E 06:33:58 10° SSE visible
24 Jan 8.9 18:42:51 10° SSW 18:45:52 26° W 18:48:53 10° NW visible
25 Jan 9.7 06:04:40 10° NE 06:07:01 17° E 06:09:23 10° SE visible
25 Jan 7.6 18:18:39 10° S 18:22:05 47° W 18:25:30 10° NNW visible
26 Jan 6.4 07:13:39 10° N 07:17:07 78° WNW 07:20:35 10° SSW visible
26 Jan 6.5 17:54:50 10° SSE 17:58:22 90° WSW 18:01:53 10° NNW visible
